sat.trackr.live / text

‹ back to catalog

HADES-SA (SPINNYONE)

NORAD 68446 · 2026-067AG

PAYLOAD ACTIVE UNKNOWN

§ Identity

Operator
Country
SPN
Launch date
2026-03-30
Launch site
AFWTR
Launch vehicle
Mass (kg)
RCS (m²)

External: N2YO · Heavens-Above · Gunter

§ Orbital elements

Epoch: 2026-09-17T19:33:21.582432Z

Period
94.62 min
Inclination
97.4497°
Eccentricity
0.0008915
Mean motion
15.21924785 rev/d
Perigee alt
493.9 km
Apogee alt
506.2 km
Semi-major
6,878.2 km
B*
6.2496e-4
RAAN
217.9593°
Arg perigee
105.6833°
Mean anomaly
254.5387°
Rev number
2,600

§ Raw data

HADES-SA (SPINNYONE)1 68446U 26067AG  26260.81483313  .00014198  00000+0  62496-3 0  99982 68446  97.4497 217.9593 0008915 105.6833 254.5387 15.21924785 26001

JSON: /api/v1/satellites/68446 · /tle

For live sub-satellite position, see the globe view (requires WebGL).

§ Visibility from observer

Set your observer location to see the next 7 days of passes ≥ 10°. The values pass through the URL so the page stays shareable.

No JS? Fill the form by hand. The geolocation button needs JavaScript.

§ Radio — SatNOGS DB

ModeDescriptionDownlinkUplink
GENESIS FSK FSK 200 bps 1125 Hz separation 436.875 MHz
GENESIS FSK FSK 800 bps 1600 Hz separation 436.875 MHz
FSK Mode V/U - 200 bps UP, 800 bps DOWN - TLM, SSDV, Codec 2, BBS 436.875 MHz 145.875 MHz
SSDV SSDV 436.875 MHz
FSK Mode U - FSK200 (inactive) 436.875 MHz

5 transmitters · refreshed weekly from db.satnogs.org